Simultaneous Nadir Overpasses (SNOs) Predictions

Prediction of SNOs between GOES-15 and TERRA Satellite Orbit:

Table of predicted SNOs for the next 14.0 days since TLE Epoch: 12/28/2013
Index Date Time (GOES-15) GOES-15 Lat,Lon TERRA Lat,Lon Distance(km) Time Diff (sec)
1 12/28/2013 07:43:08 0.03,-134.78 -0.61,-137.88 351.64 80
2 12/30/2013 07:30:56 0.03,-134.69 -0.05,-134.91 26.40 80
3 01/01/2014 07:16:06 0.04,-134.59 0.60,-131.96 298.56 80
4 01/01/2014 19:40:00 -0.01,-134.53 0.53,-137.11 293.73 80
5 01/03/2014 19:25:08 -0.02,-134.42 -0.07,-134.15 30.68 80
6 01/05/2014 19:12:56 -0.02,-134.31 -0.68,-131.19 354.96 80
7 01/06/2014 07:37:00 -0.00,-134.31 -0.43,-136.38 234.56 80
8 01/08/2014 07:22:07 0.00,-134.20 0.14,-133.41 89.39 80
9 01/10/2014 07:09:55
